AirNav   Everest Fuels
 
 487 users online  

C81 Campbell Airport
Grayslake, Illinois, USA

GOING TO GRAYSLAKE?


FAA INFORMATION EFFECTIVE 13 AUGUST 2020

Location

FAA Identifier: C81
Lat/Long: 42-19-28.6000N 088-04-26.7170W
42-19.476667N 088-04.445283W
42.3246111,-88.0740881
(estimated)
Elevation: 788 ft. / 240.2 m (surveyed)
Variation: 02W (1995)
From city: 2 miles SW of GRAYSLAKE, IL
Time zone: UTC -5 (UTC -6 during Standard Time)
Zip code: 60030

Airport Operations

Airport use: Open to the public
Activation date: 02/1964
Control tower: no
ARTCC: CHICAGO CENTER
FSS: KANKAKEE FLIGHT SERVICE STATION
NOTAMs facility: IKK (NOTAM-D service available)
Attendance: MON-FRI 0830-1600, ALL SAT-SUN UNATTENDED
Pattern altitude: 1588 ft. MSL
Wind indicator: lighted
Segmented circle: no
Beacon: white-green (lighted land airport)
Operates sunset to sunrise.

Airport Communications

CTAF/UNICOM: 122.7
CHICAGO APPROACH: 120.55
CHICAGO DEPARTURE: 120.55
WX ASOS at UGN (11 nm NE): PHONE 847-782-0876
WX ASOS at PWK (15 nm SE): PHONE 847-465-0291
WX ASOS at ENW (18 nm N): PHONE 262-652-7730

Nearby radio navigation aids

VOR radial/distance  VOR name  Freq  Var
OBKr321/8.2NORTHBROOK VOR/DME113.0002W
DPAr023/28.8DUPAGE VOR/DME108.4002E

 
NDB name  Hdg/Dist  Freq  Var  ID
CODEE190/14.338902WEN . -.
WAUKE238/14.737903WUG ..- --.
LAKE LAWN136/32.140402WLVV .-.. ...- ...-

Airport Services

Fuel available: 100LL
Parking: tiedowns
Airframe service: MAJOR
Powerplant service: MAJOR
Bottled oxygen: NONE
Bulk oxygen: NONE

Runway Information

Runway 6/24

Dimensions: 3573 x 40 ft. / 1089 x 12 m
SW 1000 FT TURF-GRVL.
Surface: asphalt/turf, in fair condition
PAVEMENT HAS SEVERAL AREAS OF DEPRESSIONS. RWY EDGES DROP OFF IN EXCESS OF 2 INCHES.
RUNWAY 6  RUNWAY 24
Latitude: 42-19.355167N42-19.664050N
Longitude: 088-04.784833W088-04.110083W
Elevation: 779.0 ft.778.0 ft.
Traffic pattern: leftleft
Runway heading: 060 magnetic, 058 true240 magnetic, 238 true
Displaced threshold: no301 ft.
RWY 24 NSTD DSPLCD THLD WHITE STRIPE MKGS ONLY. MARKED FOR RY 06 ON SW BEGINNING OF PAVED SURFACE.
Markings: numbers only, in good conditionnumbers only, in good condition
Runway end identifier lights: nono
Touchdown point: yes, no lightsyes, no lights
Obstructions: 27 ft. trees, 362 ft. from runway, 85 ft. right of centerline, 13:1 slope to clear78 ft. tree, 1540 ft. from runway, 86 ft. left of centerline, 17:1 slope to clear
+15 FT RD ADJ RWY END L & R.

Runway 9/27

Dimensions: 3270 x 40 ft. / 997 x 12 m
Surface: asphalt, in fair condition
Runway edge lights: non-standard
LIRL SPACING & LGT INTST VARIES.
Operational restrictions: RWY 09 & 27 NSTD TRIL OTS INDEFLY.
RUNWAY 9  RUNWAY 27
Latitude: 42-19.442133N42-19.440650N
Longitude: 088-04.803517W088-04.078117W
Elevation: 777.0 ft.788.0 ft.
Traffic pattern: leftleft
Runway heading: 092 magnetic, 090 true272 magnetic, 270 true
Markings: numbers only, in good conditionnumbers only, in good condition
Visual slope indicator: tri-color VASI on left (4.00 degrees glide path)
NSTD TRIL OPR DUSK-DAWN.
tri-color VASI on left (4.00 degrees glide path)
NSTD TRIL OPR DUSK-DAWN.
Runway end identifier lights: nono
Touchdown point: yes, no lightsyes, no lights

Airport Ownership and Management from official FAA records

Ownership: Privately-owned
Owner: KANE ILL PROPERTIES
PO BOX 474, SUITE 401
GRAYSLAKE, IL 60030
Phone 847-201-1618
Manager: PETER KANE
PO BOX 474, 22731 W. TOWNLINE RD
GRAYSLAKE, IL 60030
Phone (847) 201-1618
EMAIL ADDRESS: PJK201@AOL.COM (ALL LOWER CASE)

Airport Operational Statistics

Aircraft operations: avg 82/day *
67% transient general aviation
33% local general aviation
* for 12-month period ending 31 July 2019

Additional Remarks

NO TOUCH & GO LNDG PERMITTED.
UNLGTD POWER LINES 167 FT AGL 3/4 MILE S OF RWY 09/27.
NUMEROUS MIGRATORY BIRDS INVOF ARPT.
TWYS WITH NSTD SPACING AND CLEARANCES INVOF RAMP APRON.
FOR CD CTC CHICAGO APCH AT 847-289-0926.

Instrument Procedures

NOTE: All procedures below are presented as PDF files. If you need a reader for these files, you should download the free Adobe Reader.

NOT FOR NAVIGATION. Please procure official charts for flight.
FAA instrument procedures published for use from 13 August 2020 at 0901Z to 10 September 2020 at 0900Z.

 
IAPs - Instrument Approach Procedures
RNAV (GPS)-B   download (184KB)
NOTE: Special Take-Off Minimums/Departure Procedures apply   download (201KB)

Other nearby airports with instrument procedures:

KUGN - Waukegan National Airport (11 nm NE)
3CK - Lake in the Hills Airport (13 nm SW)
10C - Galt Field Airport (14 nm W)
KPWK - Chicago Executive Airport (15 nm SE)
KENW - Kenosha Regional Airport (18 nm N)
 
Loc | Ops | Rwys | IFR | FBO | Links
Com | Nav | Svcs | Stats | Notes
Area around C81 (Campbell Airport)
 
Road maps at: MapQuest Bing Google
 
Aerial photo
WARNING: Photo may not be current or correct
Aerial photo of C81 (Campbell Airport)
Photo taken 05-Jul-2009

Do you have a better or more recent aerial photo of Campbell Airport that you would like to share? If so, please send us your photo.

 
Sectional chart

 
Airport distance calculator
Flying to Campbell Airport? Find the distance to fly.

From to C81

Sunrise and sunset
Times for 14-Aug-2020
 Local
(UTC-5)
 Zulu
(UTC)
Morning civil twilight05:3010:30
Sunrise06:0011:00
Sunset19:5300:53
Evening civil twilight20:2301:23

Current date and time
Zulu (UTC)  14-Aug-2020 06:31:20
Local (UTC-5)  14-Aug-2020 01:31:20
 
METAR
KUGN 
11nm NE 
140555Z AUTO 00000KT 7SM CLR 19/18 A3006 RMK AO2 SLP170 T01890178 10239 20183 402670167 56004
KPWK 
15nm SE 
140552Z AUTO 33004KT 10SM CLR 21/19 A3008 RMK AO2 SLP180 T02060194 10261 20206 402940183 56003
KENW 
18nm N 
140553Z AUTO 04005KT 10SM CLR 19/18 A3008 RMK AO2 SLP181 T01940183 10244 20183 402830161 56004
K06C 
20nm S 
140615Z AUTO 00000KT 10SM CLR 21/19 A3007 RMK AO2 T02060188
KORD 
21nm S 
140551Z 35003KT 10SM CLR 22/19 A3006 RMK AO2 SLP173 T02170194 10278 20217 403060206 55003
TAF
KENW 
18nm N 
140520Z 1406/1506 00000KT P6SM SKC FM141500 09007KT P6SM SKC
KORD 
21nm S 
140520Z 1406/1512 07008KT P6SM FEW050 SCT250 FM150800 28004KT P6SM FEW100 SCT250
NOTAMs
Click for the latest NOTAMs
NOTAMs are issued by the DoD/FAA and will open in a separate window not controlled by AirNav.

 

 
 

FBO, Fuel Providers, and Aircraft Ground Support

  
 Business Name 
 
 Contact 
 
 Services / Description 
 
Fuel Prices
 
Comments
  
Campbell Airport, LLC no information available

If you are affiliated with Campbell Airport, LLC and would like to show here your services, contact info, web link, logo, and more, click here
100LL
SS $3.93 
 Updated 09-Aug-2020
 
   1 read write
SS=Self service
Update Fuel Prices
 

Would you like to see your business listed on this page?

 If your business provides an interesting product or service to pilots, flight crews, aircraft, or users of the Campbell Airport, you should consider listing it here.  To start the listing process, click on the button below
 
Add a business
 

Other Pages about Campbell Airport

Update a link
 
Copyright © AirNav, LLC. All rights reserved. Privacy Policy  Contact